Regional Weather Roundup
Issued by NWS Goodland, KS

Home | Current Version | Previous Version | Text Only | Print | Product List | Glossary Off
Versions: 1 2 3 4 5 6 7 8 9 10 11 12 13 14 15 16 17 18 19 20 21 22 23 24 25 26 27 28 29 30 31 32 33 34 35 36 37 38 39 40 41 42 43 44 45 46 47 48 49 50

000
ASUS43 KGLD 241608
RWRGLD

GOODLAND FORECAST AREA HOURLY WEATHER ROUNDUP
NATIONAL WEATHER SERVICE GOODLAND KS
1000 AM MDT THU APR 24 2014

...OFFICIAL OBSERVATIONS...

CITY           SKY/WX    TMP DP  RH WIND       PRES   REMARKS
GOODLAND KS    SUNNY     58  24  27 N24G32    29.96S
HILL CITY KS   CLOUDY    58  38  47 NW16G26   29.90R
IMPERIAL NEB   SUNNY     60  20  21 NW23G29   29.93S
MCCOOK NEB     SUNNY     62  25  24 NW25G33   29.91R
AKRON CO       SUNNY     52  18  26 NW22      29.99S
BURLINGTON CO  SUNNY     55  15  20 N23G29    30.00R
LIMON CO       SUNNY     49  20  31 N13       30.04S
$$

...UNOFFICIAL OBSERVATIONS...

CITY           SKY/WX    TMP DP  RH WIND       PRES   REMARKS
COLBY KS       SUNNY     61  32  33 NW18G29   29.94R
LENORA KS        N/A     57  32  39 W20         N/A
LEOTI KS         N/A     58  32  37 NW17        N/A
NORTON KS      SUNNY     55  36  47 NW18G26   29.87R
OBERLIN KS     FAIR      61  30  31 NW20G36   29.90S
SHARON SPRINGS   N/A     58  27  30 N16G26      N/A
ST FRANCIS KS  SUNNY     59  14  17 NW17G24   29.96R
WAKEENEY KS      N/A     58  36  43 MISG        N/A
TRENTON NEB      N/A     59  32  36 NW22        N/A
KIT CARSON CO    N/A     54  20  26 MISG        N/A
WRAY CO        FAIR      59  19  21 NW17G24   29.98R
$$



USA.gov is the U.S. government's official web portal to all federal, state and local government web resources and services.